TimePDT,TemperatureF,Dew PointF,Humidity,Sea Level PressureIn,VisibilityMPH,Wind Direction,Wind SpeedMPH,Gust SpeedMPH,PrecipitationIn,Events,Conditions,WindDirDegrees,DateUTC
12:53 AM,64.0,54.0,70,30.05,10.0,Calm,Calm,-,N/A,,Clear,0,2014-05-15 07:53:00
1:53 AM,63.0,53.1,70,30.05,10.0,Calm,Calm,-,N/A,,Clear,0,2014-05-15 08:53:00
2:53 AM,61.0,53.1,75,30.04,10.0,Calm,Calm,-,N/A,,Clear,0,2014-05-15 09:53:00
3:53 AM,57.0,53.1,87,30.04,10.0,Calm,Calm,-,N/A,,Clear,0,2014-05-15 10:53:00
4:53 AM,57.0,53.1,87,30.04,10.0,Calm,Calm,-,N/A,,Clear,0,2014-05-15 11:53:00
5:53 AM,55.9,52.0,87,30.04,10.0,Calm,Calm,-,N/A,,Clear,0,2014-05-15 12:53:00
6:53 AM,57.9,54.0,87,30.05,10.0,Calm,Calm,-,N/A,,Clear,0,2014-05-15 13:53:00
7:53 AM,63.0,52.0,67,30.05,10.0,Calm,Calm,-,N/A,,Clear,0,2014-05-15 14:53:00
8:53 AM,66.9,55.0,66,30.05,10.0,Calm,Calm,-,N/A,,Clear,0,2014-05-15 15:53:00
9:53 AM,70.0,55.9,61,30.04,10.0,South,3.5,-,N/A,,Clear,170,2014-05-15 16:53:00
10:53 AM,73.0,57.0,57,30.04,10.0,SSW,6.9,-,N/A,,Clear,200,2014-05-15 17:53:00
12:53 PM,78.1,55.9,46,30.02,10.0,South,8.1,-,N/A,,Clear,180,2014-05-15 19:53:00
1:53 PM,79.0,53.1,40,30.02,10.0,SW,9.2,-,N/A,,Clear,220,2014-05-15 20:53:00
2:53 PM,80.1,52.0,38,30.02,10.0,SW,8.1,-,N/A,,Clear,230,2014-05-15 21:53:00
3:53 PM,80.1,53.1,39,30.01,10.0,WSW,6.9,-,N/A,,Clear,240,2014-05-15 22:53:00
4:53 PM,78.1,57.0,48,30.01,10.0,South,10.4,-,N/A,,Clear,180,2014-05-15 23:53:00
5:53 PM,77.0,48.9,37,30.01,10.0,SW,5.8,-,N/A,,Clear,220,2014-05-16 00:53:00
6:53 PM,75.0,48.9,40,30.01,10.0,SSW,5.8,-,N/A,,Clear,210,2014-05-16 01:53:00
7:53 PM,72.0,50.0,46,30.02,10.0,SW,4.6,-,N/A,,Clear,230,2014-05-16 02:53:00
8:53 PM,68.0,46.9,47,30.04,10.0,SW,4.6,-,N/A,,Clear,230,2014-05-16 03:53:00
9:53 PM,63.0,45.0,52,30.07,10.0,South,6.9,-,N/A,,Clear,180,2014-05-16 04:53:00
10:53 PM,61.0,48.0,62,30.08,10.0,SSW,5.8,-,N/A,,Clear,210,2014-05-16 05:53:00
11:53 PM,57.0,44.1,62,30.12,10.0,SW,6.9,-,N/A,,Clear,220,2014-05-16 06:53:00